Location: San Antonio
(29.4240°N, 98.4930°W)
Time: 03:20:32
(UTC-05:00)

Vanguard 2 - All Passes

Search period start: 16 July 2024 00:00
Search period end: 26 July 2024 00:00
Orbit: 552 x 2913 km, 32.9° (Epoch: 15 July)

Date Brightness Start Highest point End Pass type
(mag) Time Alt. Az. Time Alt. Az. Time Alt. Az.
16 Jul - 01:51:44 10° W 01:56:42 64° N 02:04:38 10° E visible
16 Jul - 03:59:09 10° WNW 04:05:55 89° NNE 04:17:40 10° ESE visible
16 Jul - 06:07:07 10° W 06:15:56 49° SSW 06:29:51 10° SE visible
16 Jul - 08:18:29 10° WSW 08:27:00 21° SSW 08:37:33 10° S daylight
16 Jul - 21:52:04 10° SSW 21:55:01 20° SSE 21:58:01 10° E visible
16 Jul - 23:58:27 10° WSW 00:02:30 86° NNW 00:07:59 10° ENE night (unlit)
17 Jul - 02:06:00 10° WNW 02:11:02 64° N 02:19:11 10° E visible
17 Jul - 04:13:21 10° WNW 04:20:12 80° SSW 04:32:02 10° ESE visible
17 Jul - 06:21:41 10° W 06:30:16 39° SSW 06:43:19 10° SSE visible
17 Jul - 08:35:15 10° WSW 08:41:26 14° SW 08:48:35 10° S daylight
17 Jul - 22:05:30 10° SW 22:09:05 31° SSE 22:12:46 10° E visible
18 Jul - 00:12:41 10° W 00:16:45 70° N 00:22:19 10° ENE night (unlit)
18 Jul - 02:20:13 10° WNW 02:25:21 69° N 02:33:43 10° E visible
18 Jul - 04:27:34 10° WNW 04:34:28 66° SSW 04:46:15 10° ESE visible
18 Jul - 06:36:27 10° W 06:44:38 30° SSW 06:56:26 10° SSE daylight
18 Jul - 22:19:18 10° SW 22:23:10 48° SSE 22:27:12 10° E visible
19 Jul - 00:26:58 10° W 00:31:03 61° N 00:36:40 10° ENE night (unlit)
19 Jul - 02:34:24 10° WNW 02:39:39 77° NNE 02:48:15 10° E visible
19 Jul - 04:41:52 10° W 04:48:46 53° SSW 05:00:13 10° SE visible
19 Jul - 06:51:38 10° WSW 06:59:03 23° SSW 07:09:02 10° SSE daylight
19 Jul - 20:27:05 10° S 20:29:39 14° SSE 20:31:56 10° ESE daylight
19 Jul - 22:33:19 10° WSW 22:37:19 72° SSE 22:41:31 10° ENE visible
20 Jul - 00:41:15 10° W 00:45:21 57° N 00:51:04 10° E night (unlit)
20 Jul - 02:48:36 10° WNW 02:53:54 90° NNE 03:02:41 10° ESE visible
20 Jul - 04:56:17 10° W 05:03:04 42° SSW 05:13:56 10° SE visible
20 Jul - 07:07:36 10° WSW 07:13:30 16° SSW 07:20:48 10° S daylight
20 Jul - 20:40:02 10° SSW 20:43:50 23° SSE 20:47:02 10° E daylight
20 Jul - 22:47:30 10° WSW 22:51:30 83° NNW 22:55:46 10° ENE visible
21 Jul - 00:55:30 10° WNW 00:59:39 58° N 01:05:30 10° E night (unlit)
21 Jul - 03:02:46 10° WNW 03:08:08 75° SSW 03:16:59 10° ESE visible
21 Jul - 05:10:52 10° W 05:17:24 32° SSW 05:27:18 10° SSE visible
21 Jul - 07:26:28 10° SW 07:28:01 10° SSW 07:29:39 10° SSW daylight
21 Jul - 20:53:34 10° SW 20:57:59 35° SSE 21:01:38 10° E visible
21 Jul - 23:01:47 10° W 23:05:44 65° N 23:10:00 10° ENE visible
22 Jul - 01:09:42 10° WNW 01:13:55 64° N 01:19:57 10° E night (unlit)
22 Jul - 03:17:00 10° W 03:22:21 59° SSW 03:31:07 10° SE visible
22 Jul - 05:25:48 10° WSW 05:31:47 23° SSW 05:40:14 10° SSE visible
22 Jul - 19:01:03 10° S 19:03:56 13° SSE 19:06:24 10° SE daylight
22 Jul - 21:07:26 10° SW 21:12:08 52° SSE 21:15:59 10° E visible
22 Jul - 23:16:05 10° W 23:19:59 56° N 23:24:17 10° ENE visible
23 Jul - 01:23:53 10° WNW 01:28:10 75° NNE 01:34:23 10° E night (unlit)
23 Jul - 03:31:19 10° W 03:36:37 44° SSW 03:45:00 10° SE visible
23 Jul - 05:41:19 10° WSW 05:46:12 17° SSW 05:52:28 10° S visible
23 Jul - 19:13:34 10° SSW 19:18:14 21° SSE 19:21:48 10° ESE daylight
23 Jul - 21:21:31 10° WSW 21:26:18 76° SSE 21:30:14 10° ENE visible
23 Jul - 23:30:24 10° WNW 23:34:15 52° N 23:38:35 10° ENE visible
24 Jul - 01:38:03 10° WNW 01:42:23 89° SSW 01:48:44 10° ESE night (unlit)
24 Jul - 03:45:47 10° W 03:50:53 33° SSW 03:58:37 10° SE visible
24 Jul - 05:58:54 10° SW 06:00:40 11° SSW 06:02:35 10° SSW visible
24 Jul - 19:26:50 10° SW 19:32:29 30° SSE 19:36:33 10° E daylight
24 Jul - 21:35:45 10° WSW 21:40:29 81° NNW 21:44:25 10° ENE visible
24 Jul - 23:44:39 10° WNW 23:48:31 53° N 23:52:56 10° E visible
25 Jul - 01:52:14 10° WNW 01:56:34 68° SSW 02:02:57 10° ESE night (unlit)
25 Jul - 04:00:31 10° WSW 04:05:12 24° SSW 04:11:49 10° SSE visible
25 Jul - 17:33:50 10° S 17:37:48 14° SSE 17:41:04 10° SE daylight
25 Jul - 19:40:30 10° SW 19:46:42 43° SSE 19:50:58 10° E daylight
25 Jul - 21:50:05 10° W 21:54:41 64° N 21:58:36 10° ENE visible
